When you browse on this site, cookies collect data to enhance your experience and personalize the content and advertising you see.
Visit our Privacy Policy to learn more. By continuing to use the site, you agree to this use of cookies and data.
EN

Hourly Weather Xanten

Today, 3 July, Friday

Time Temperature Precipitation Wind Pressure Humidity
00:00 +12°C° 0 mm 3 mps 759 mmHg 90%
01:00 +12°C° 0 mm 3 mps 759 mmHg 91%
02:00 +12°C° 0 mm 4 mps 759 mmHg 91%
03:00 +12°C° 0 mm 4 mps 759 mmHg 92%
04:00 +12°C° 0 mm 4 mps 759 mmHg 91%
05:00 +13°C° 0 mm 4 mps 759 mmHg 90%
06:00 +14°C° 0 mm 5 mps 760 mmHg 89%
07:00 +15°C° 0 mm 5 mps 760 mmHg 86%
08:00 +16°C° 0 mm 5 mps 760 mmHg 83%
09:00 +17°C° 0 mm 5 mps 760 mmHg 81%
10:00 +17°C° 0 mm 5 mps 760 mmHg 77%
11:00 +19°C° 0 mm 5 mps 760 mmHg 74%
12:00 +20°C° 0 mm 5 mps 760 mmHg 70%
13:00 +21°C° 0.1 mm 6 mps 760 mmHg 67%
14:00 +22°C° 0.1 mm 6 mps 760 mmHg 64%
15:00 +22°C° 0.1 mm 6 mps 760 mmHg 61%
16:00 +22°C° 0.1 mm 5 mps 760 mmHg 64%
17:00 +21°C° 0.1 mm 5 mps 760 mmHg 66%
18:00 +20°C° 0.1 mm 4 mps 760 mmHg 68%
19:00 +19°C° 0 mm 4 mps 760 mmHg 71%
20:00 +18°C° 0 mm 4 mps 760 mmHg 73%
21:00 +15°C° 0 mm 4 mps 761 mmHg 75%
22:00 +15°C° 0 mm 4 mps 760 mmHg 74%
23:00 +15°C° 0 mm 5 mps 760 mmHg 72%

Tomorrow, 4 July, Saturday

Time Temperature Precipitation Wind Pressure Humidity
00:00 +15°C° 0 mm 5 mps 760 mmHg 71%
01:00 +15°C° 0 mm 5 mps 760 mmHg 72%
02:00 +15°C° 0 mm 5 mps 760 mmHg 73%
03:00 +14°C° 0 mm 5 mps 760 mmHg 74%
04:00 +14°C° 0.2 mm 5 mps 760 mmHg 78%
05:00 +14°C° 0.2 mm 6 mps 760 mmHg 83%
06:00 +14°C° 0.2 mm 6 mps 760 mmHg 87%
07:00 +14°C° 0.1 mm 6 mps 760 mmHg 86%
08:00 +15°C° 0.1 mm 6 mps 760 mmHg 86%
09:00 +15°C° 0.1 mm 6 mps 759 mmHg 86%
10:00 +16°C° 0 mm 6 mps 759 mmHg 84%
11:00 +16°C° 0 mm 6 mps 759 mmHg 81%
12:00 +17°C° 0 mm 7 mps 759 mmHg 79%
13:00 +18°C° 0 mm 7 mps 759 mmHg 78%
14:00 +19°C° 0 mm 6 mps 758 mmHg 77%
15:00 +20°C° 0 mm 6 mps 758 mmHg 76%
16:00 +18°C° 0.4 mm 7 mps 758 mmHg 81%
17:00 +17°C° 0.4 mm 7 mps 757 mmHg 85%
18:00 +16°C° 0.4 mm 7 mps 757 mmHg 90%
19:00 +16°C° 0.3 mm 7 mps 757 mmHg 91%
20:00 +17°C° 0.3 mm 7 mps 757 mmHg 92%
21:00 +17°C° 0.3 mm 7 mps 757 mmHg 93%
22:00 +17°C° 0.1 mm 7 mps 757 mmHg 93%
23:00 +17°C° 0.1 mm 6 mps 757 mmHg 93%

Day after tomorrow, 5 July, Sunday

Time Temperature Precipitation Wind Pressure Humidity
00:00 +17°C° 0.1 mm 6 mps 757 mmHg 93%
01:00 +17°C° 0 mm 6 mps 757 mmHg 93%
02:00 +17°C° 0 mm 6 mps 757 mmHg 93%
03:00 +17°C° 0 mm 6 mps 757 mmHg 93%
04:00 +17°C° 0 mm 6 mps 757 mmHg 92%
05:00 +17°C° 0 mm 6 mps 757 mmHg 91%
06:00 +17°C° 0 mm 6 mps 756 mmHg 90%
07:00 +18°C° 0.1 mm 7 mps 756 mmHg 88%
08:00 +18°C° 0.1 mm 7 mps 756 mmHg 85%
09:00 +18°C° 0.1 mm 8 mps 756 mmHg 82%
10:00 +20°C° 0 mm 8 mps 756 mmHg 79%
11:00 +19°C° 0 mm 9 mps 756 mmHg 76%
12:00 +21°C° 0 mm 9 mps 755 mmHg 74%
13:00 +21°C° 0 mm 9 mps 755 mmHg 74%
14:00 +21°C° 0 mm 9 mps 755 mmHg 74%
15:00 +22°C° 0 mm 9 mps 755 mmHg 74%
16:00 +21°C° 0.2 mm 8 mps 755 mmHg 77%
17:00 +20°C° 0.2 mm 8 mps 755 mmHg 80%
18:00 +20°C° 0.2 mm 7 mps 755 mmHg 83%
19:00 +18°C° 0.3 mm 7 mps 755 mmHg 84%
20:00 +17°C° 0.3 mm 6 mps 756 mmHg 85%
21:00 +17°C° 0.3 mm 6 mps 756 mmHg 87%
22:00 +16°C° 0.1 mm 6 mps 756 mmHg 87%
23:00 +16°C° 0.1 mm 6 mps 756 mmHg 87%

6 July, Monday

Time Temperature Precipitation Wind Pressure Humidity
00:00 +15°C° 0.1 mm 6 mps 755 mmHg 87%
01:00 +15°C° 0.1 mm 6 mps 755 mmHg 86%
02:00 +14°C° 0.1 mm 6 mps 755 mmHg 86%
03:00 +14°C° 0.1 mm 5 mps 755 mmHg 85%
04:00 +14°C° 0.1 mm 6 mps 755 mmHg 83%
05:00 +13°C° 0.1 mm 6 mps 756 mmHg 82%
06:00 +13°C° 0.1 mm 6 mps 756 mmHg 81%
07:00 +14°C° 0.1 mm 7 mps 756 mmHg 75%
08:00 +15°C° 0.1 mm 8 mps 757 mmHg 70%
09:00 +16°C° 0.1 mm 8 mps 757 mmHg 65%
10:00 +16°C° 0.2 mm 8 mps 757 mmHg 64%
11:00 +17°C° 0.2 mm 8 mps 757 mmHg 63%
12:00 +17°C° 0.2 mm 8 mps 758 mmHg 63%
13:00 +17°C° 0.1 mm 8 mps 758 mmHg 61%
14:00 +17°C° 0.1 mm 7 mps 759 mmHg 59%
15:00 +18°C° 0.1 mm 7 mps 759 mmHg 57%
16:00 +17°C° 0.1 mm 6 mps 760 mmHg 62%
17:00 +16°C° 0.1 mm 6 mps 760 mmHg 66%
18:00 +16°C° 0.1 mm 5 mps 761 mmHg 71%
19:00 +14°C° 0 mm 5 mps 762 mmHg 75%
20:00 +13°C° 0 mm 4 mps 762 mmHg 79%
21:00 +12°C° 0 mm 4 mps 763 mmHg 83%
22:00 +11°C° 0 mm 3 mps 764 mmHg 86%
23:00 +10°C° 0 mm 3 mps 764 mmHg 88%

7 July, Tuesday

Time Temperature Precipitation Wind Pressure Humidity
00:00 +10°C° 0 mm 2 mps 764 mmHg 91%
01:00 +9°C° 0 mm 2 mps 765 mmHg 90%
02:00 +9°C° 0 mm 2 mps 765 mmHg 89%
03:00 +9°C° 0 mm 2 mps 765 mmHg 88%
04:00 +10°C° 0 mm 2 mps 765 mmHg 84%
05:00 +12°C° 0 mm 2 mps 765 mmHg 80%
06:00 +13°C° 0 mm 2 mps 765 mmHg 75%
07:00 +14°C° 0 mm 2 mps 765 mmHg 69%
08:00 +16°C° 0 mm 2 mps 765 mmHg 63%
09:00 +17°C° 0 mm 2 mps 765 mmHg 56%
10:00 +18°C° 0 mm 3 mps 765 mmHg 56%
11:00 +18°C° 0 mm 3 mps 765 mmHg 55%
12:00 +19°C° 0 mm 4 mps 764 mmHg 55%
13:00 +19°C° 0 mm 4 mps 764 mmHg 57%
14:00 +19°C° 0 mm 4 mps 764 mmHg 59%
15:00 +19°C° 0 mm 4 mps 764 mmHg 61%
16:00 +18°C° 0.1 mm 4 mps 764 mmHg 64%
17:00 +18°C° 0.1 mm 3 mps 764 mmHg 67%
18:00 +18°C° 0.1 mm 3 mps 764 mmHg 70%
19:00 +16°C° 0 mm 3 mps 765 mmHg 75%
20:00 +13°C° 0 mm 3 mps 765 mmHg 80%
21:00 +12°C° 0 mm 2 mps 765 mmHg 85%
22:00 +12°C° 0 mm 2 mps 765 mmHg 87%
23:00 +11°C° 0 mm 1 mps 765 mmHg 88%

8 July, Wednesday

Time Temperature Precipitation Wind Pressure Humidity
00:00 +10°C° 0 mm 1 mps 765 mmHg 89%
01:00 +10°C° 0 mm 1 mps 765 mmHg 90%
02:00 +10°C° 0 mm 1 mps 765 mmHg 90%
03:00 +9°C° 0 mm 1 mps 765 mmHg 90%
04:00 +11°C° 0 mm 1 mps 765 mmHg 86%
05:00 +12°C° 0 mm 1 mps 765 mmHg 82%
06:00 +13°C° 0 mm 1 mps 765 mmHg 78%
07:00 +15°C° 0 mm 1 mps 765 mmHg 72%
08:00 +18°C° 0 mm 1 mps 765 mmHg 65%
09:00 +17°C° 0 mm 0 mps 765 mmHg 59%
10:00 +20°C° 0 mm 1 mps 765 mmHg 56%
11:00 +21°C° 0 mm 1 mps 764 mmHg 53%
12:00 +22°C° 0 mm 1 mps 764 mmHg 49%
13:00 +22°C° 0 mm 1 mps 764 mmHg 50%
14:00 +23°C° 0 mm 1 mps 763 mmHg 50%
15:00 +23°C° 0 mm 1 mps 763 mmHg 50%
16:00 +22°C° 0 mm 1 mps 763 mmHg 54%
17:00 +22°C° 0 mm 1 mps 762 mmHg 59%
18:00 +22°C° 0 mm 1 mps 762 mmHg 63%
19:00 +20°C° 0 mm 1 mps 762 mmHg 66%
20:00 +19°C° 0 mm 1 mps 762 mmHg 68%
21:00 +16°C° 0 mm 1 mps 762 mmHg 71%
22:00 +16°C° 0 mm 1 mps 762 mmHg 71%
23:00 +16°C° 0 mm 2 mps 762 mmHg 71%
Show more